Find Starlink 36989

NORAD ID: 68277 Int'l Des: 2026-055 Owner: SPXS Country: US Constellation: starlink operational
LEOCIRCULAR

实时位置

正在加载3D地球...

关于 Starlink 36989

正在加载描述...

即将过境

Passes for default location (London). Set your location on the main map for personalized predictions.

高度历史

Loading altitude history...

两行轨道根数

1 68277U 26055R 26124.16668980 -.01682264 00000-0 -52832-1 0 9999
2 68277 53.1601 61.1577 0001254 72.6875 172.0421 15.35604496 6019
Epoch: May 4, 2026 • Age: 11 hours

当前状态

高度 483.4 km
速度 7.62 km/s
星下点 -53.29°S, 117.06°W
发射日期 Mar 19, 2026
运行时间 0.1 years
类型 internet

技术详情

分类 Payload
质量 575.00 kg
干质量 530.00 kg
总质量 575.00 kg
长度 0.30 m
直径 4.10 m
跨度 29.00 m
形状 Box + pan
制造商 SPXS
平台类型 Starlink V2MO
阶段状态 In Orbit
所有者/国家 SPXS/US

Most Searched